This is the latest recevied weather packets stored in our database for station/object N8VDS-10. If no packets are shown the sender has not sent any weather packets the latest 10 day(s).
| Time | Temp. | Humidity | Pressure | Rain* | Wind** | Luminosity | Snow |
|---|---|---|---|---|---|---|---|
| 1777635616 | 3.89° C | 91% | 1017.6 hPa | 0 mm | - | 54 W/m² | - |
| 1777635313 | 3.89° C | 91% | 1017.5 hPa | 0 mm | - | 57 W/m² | - |
| 1777635010 | 3.89° C | 91% | 1017.7 hPa | 0 mm | - | 56 W/m² | - |
| 1777634706 | 3.89° C | 92% | 1017.3 hPa | 0 mm | - | 56 W/m² | - |
| 1777634404 | 3.33° C | 92% | 1017.6 hPa | 0 mm | - | 46 W/m² | - |
| 1777634101 | 3.33° C | 92% | 1017.5 hPa | 0 mm | - | 39 W/m² | - |
| 1777633797 | 3.33° C | 92% | 1017.6 hPa | 0 mm | - | 27 W/m² | - |
| 1777633495 | 3.33° C | 92% | 1017.5 hPa | 0 mm | - | 20 W/m² | - |
| 1777633193 | 3.33° C | 92% | 1017.3 hPa | 0 mm | - | 19 W/m² | - |
| 1777632889 | 3.33° C | 92% | 1017.1 hPa | 0 mm | - | 16 W/m² | - |
| 1777632585 | 3.33° C | 92% | 1017.1 hPa | 0 mm | - | 10 W/m² | - |
| 1777632283 | 3.33° C | 92% | 1017.2 hPa | 0 mm | - | 8 W/m² | - |
| 1777631979 | 3.33° C | 92% | 1017 hPa | 0 mm | - | 5 W/m² | - |
| 1777631678 | 3.33° C | 92% | 1016.9 hPa | 0 mm | - | 2 W/m² | - |
| 1777631375 | 3.33° C | 92% | 1016.8 hPa | 0 mm | - | 2 W/m² | - |
| 1777631072 | 3.33° C | 92% | 1016.9 hPa | 0 mm | - | 1 W/m² | - |
| 1777630768 | 3.33° C | 92% | 1016.7 hPa | 0 mm | - | 0 W/m² | - |
| 1777630465 | 3.33° C | 92% | 1017.1 hPa | 0 mm | - | 0 W/m² | - |
| 1777630162 | 2.78° C | 92% | 1016.9 hPa | 0 mm | - | 0 W/m² | - |
| 1777629860 | 3.33° C | 92% | 1017.1 hPa | 0 mm | - | 0 W/m² | - |
| 1777629556 | 3.33° C | 92% | 1016.9 hPa | 0 mm | - | 0 W/m² | - |
| 1777629253 | 3.33° C | 92% | 1017 hPa | 0 mm | - | 0 W/m² | - |
| 1777628949 | 3.33° C | 91% | 1017 hPa | 0 mm | - | 0 W/m² | - |
| 1777628646 | 2.78° C | 91% | 1016.9 hPa | 0 mm | - | 0 W/m² | - |
| 1777628342 | 3.33° C | 90% | 1017 hPa | 0 mm | - | 0 W/m² | - |
* Rain latest hour (hover to see other rain measurements)
** Current wind speed in m/s (hover to see current wind gust speed)